TimeEDT,TemperatureF,Dew PointF,Humidity,Sea Level PressureIn,VisibilityMPH,Wind Direction,Wind SpeedMPH,Gust SpeedMPH,PrecipitationIn,Events,Conditions,WindDirDegrees,DateUTC
12:15 AM,61.2,59.0,93,30.19,7.0,NNE,3.5,-,N/A,,Clear,20,2013-08-17 04:15:00
12:35 AM,59.9,58.1,94,30.19,5.0,Calm,Calm,-,N/A,,Clear,0,2013-08-17 04:35:00
12:55 AM,59.9,58.3,94,30.19,5.0,Calm,Calm,-,N/A,,Clear,0,2013-08-17 04:55:00
1:15 AM,60.1,58.5,94,30.19,5.0,Calm,Calm,-,N/A,,Clear,0,2013-08-17 05:15:00
1:35 AM,60.1,58.5,94,30.19,5.0,Calm,Calm,-,N/A,,Clear,0,2013-08-17 05:35:00
1:55 AM,60.3,58.5,94,30.18,5.0,Calm,Calm,-,N/A,,Clear,0,2013-08-17 05:55:00
2:15 AM,60.8,58.6,93,30.18,7.0,North,3.5,-,N/A,,Scattered Clouds,350,2013-08-17 06:15:00
2:35 AM,61.2,59.2,93,30.18,7.0,Calm,Calm,-,N/A,,Overcast,0,2013-08-17 06:35:00
2:55 AM,61.0,58.6,92,30.17,7.0,Calm,Calm,-,N/A,,Scattered Clouds,0,2013-08-17 06:55:00
3:15 AM,59.9,57.9,93,30.17,5.0,Calm,Calm,-,N/A,,Clear,0,2013-08-17 07:15:00
3:35 AM,60.8,59.0,94,30.17,7.0,North,3.5,-,N/A,,Mostly Cloudy,360,2013-08-17 07:35:00
3:55 AM,60.8,59.0,94,30.17,7.0,Calm,Calm,-,N/A,,Mostly Cloudy,0,2013-08-17 07:55:00
4:15 AM,61.0,59.0,93,30.17,7.0,North,3.5,-,N/A,,Mostly Cloudy,10,2013-08-17 08:15:00
4:35 AM,61.3,59.0,92,30.17,7.0,North,4.6,-,N/A,,Overcast,360,2013-08-17 08:35:00
4:55 AM,61.7,59.2,91,30.17,7.0,North,3.5,-,N/A,,Overcast,360,2013-08-17 08:55:00
5:15 AM,61.7,59.0,91,30.17,7.0,North,4.6,-,N/A,,Overcast,360,2013-08-17 09:15:00
5:35 AM,61.9,59.2,91,30.17,7.0,North,4.6,-,N/A,,Overcast,360,2013-08-17 09:35:00
5:55 AM,62.2,59.2,90,30.17,7.0,North,4.6,-,N/A,,Overcast,10,2013-08-17 09:55:00
6:15 AM,62.2,59.4,90,30.18,10.0,North,4.6,-,N/A,,Overcast,10,2013-08-17 10:15:00
6:35 AM,62.6,59.4,89,30.18,10.0,North,3.5,-,N/A,,Overcast,10,2013-08-17 10:35:00
6:55 AM,62.6,59.5,90,30.18,10.0,North,4.6,-,N/A,,Overcast,10,2013-08-17 10:55:00
7:15 AM,62.8,59.7,90,30.19,10.0,North,3.5,-,N/A,,Overcast,10,2013-08-17 11:15:00
7:35 AM,63.1,59.9,89,30.19,10.0,North,4.6,-,N/A,,Overcast,10,2013-08-17 11:35:00
7:55 AM,63.5,59.9,88,30.19,7.0,NNE,4.6,-,N/A,,Overcast,20,2013-08-17 11:55:00
8:15 AM,63.5,60.1,89,30.19,10.0,NNE,5.8,-,N/A,,Overcast,20,2013-08-17 12:15:00
8:35 AM,63.7,60.6,90,30.19,7.0,NNE,4.6,-,N/A,,Overcast,20,2013-08-17 12:35:00
8:55 AM,64.4,60.8,88,30.20,10.0,North,4.6,-,N/A,,Overcast,360,2013-08-17 12:55:00
9:15 AM,64.4,60.8,88,30.20,10.0,North,5.8,-,N/A,,Overcast,360,2013-08-17 13:15:00
9:35 AM,64.4,60.8,88,30.20,7.0,North,4.6,-,N/A,,Overcast,10,2013-08-17 13:35:00
9:55 AM,64.4,61.7,91,30.20,2.5,North,5.8,-,N/A,,Drizzle,10,2013-08-17 13:55:00
10:15 AM,64.0,62.1,93,30.21,2.5,North,5.8,-,0.01,,Drizzle,10,2013-08-17 14:15:00
10:35 AM,64.0,62.2,94,30.21,7.0,NNE,8.1,-,0.01,,Overcast,20,2013-08-17 14:35:00
10:55 AM,64.2,62.4,94,30.21,7.0,North,6.9,-,0.01,,Overcast,10,2013-08-17 14:55:00
11:15 AM,64.6,62.6,93,30.21,7.0,NNE,5.8,-,N/A,,Overcast,30,2013-08-17 15:15:00
11:35 AM,65.3,63.0,92,30.21,10.0,NNE,5.8,-,N/A,,Overcast,30,2013-08-17 15:35:00
11:55 AM,65.5,63.0,92,30.21,10.0,NNE,5.8,-,N/A,,Overcast,20,2013-08-17 15:55:00
12:15 PM,66.2,63.9,92,30.20,7.0,NE,4.6,-,N/A,,Overcast,40,2013-08-17 16:15:00
12:35 PM,67.1,64.6,92,30.20,10.0,NNE,4.6,-,N/A,,Overcast,30,2013-08-17 16:35:00
12:55 PM,68.4,65.3,90,30.19,10.0,NNE,6.9,-,N/A,,Overcast,30,2013-08-17 16:55:00
1:15 PM,69.4,65.8,88,30.19,10.0,NNE,6.9,-,N/A,,Overcast,30,2013-08-17 17:15:00
1:35 PM,69.6,65.8,88,30.19,10.0,NE,6.9,-,N/A,,Overcast,40,2013-08-17 17:35:00
1:55 PM,70.0,66.2,88,30.19,10.0,NE,5.8,-,N/A,,Overcast,40,2013-08-17 17:55:00
2:15 PM,69.8,66.9,91,30.19,2.5,NE,4.6,-,N/A,,Overcast,40,2013-08-17 18:15:00
2:35 PM,70.0,67.3,91,30.18,7.0,NNE,4.6,-,N/A,Rain,Light Rain,20,2013-08-17 18:35:00
2:55 PM,70.3,67.5,91,30.17,10.0,NE,6.9,-,N/A,,Light Drizzle,40,2013-08-17 18:55:00
3:15 PM,71.1,67.8,89,30.17,10.0,NE,6.9,-,N/A,,Overcast,50,2013-08-17 19:15:00
3:35 PM,71.6,67.3,86,30.16,10.0,NE,6.9,-,N/A,,Overcast,50,2013-08-17 19:35:00
3:55 PM,71.2,67.1,87,30.16,10.0,ENE,9.2,16.1,N/A,,Overcast,60,2013-08-17 19:55:00
4:15 PM,71.6,66.6,84,30.16,10.0,NE,6.9,-,N/A,,Overcast,40,2013-08-17 20:15:00
4:35 PM,71.6,66.9,85,30.15,10.0,NE,6.9,-,N/A,,Overcast,40,2013-08-17 20:35:00
4:55 PM,70.9,66.6,86,30.16,5.0,NE,9.2,-,N/A,,Overcast,40,2013-08-17 20:55:00
5:15 PM,70.7,66.7,87,30.16,10.0,NE,5.8,-,N/A,,Overcast,40,2013-08-17 21:15:00
5:35 PM,71.1,66.4,85,30.16,10.0,NE,9.2,-,N/A,,Overcast,50,2013-08-17 21:35:00
5:55 PM,70.0,66.7,89,30.16,5.0,NE,8.1,-,N/A,,Light Drizzle,40,2013-08-17 21:55:00
6:15 PM,70.2,66.7,89,30.16,10.0,NE,8.1,-,N/A,,Overcast,40,2013-08-17 22:15:00
6:35 PM,69.8,65.7,87,30.16,10.0,NE,9.2,-,N/A,,Overcast,50,2013-08-17 22:35:00
6:55 PM,69.3,65.8,89,30.16,10.0,NE,8.1,-,N/A,,Light Drizzle,50,2013-08-17 22:55:00
7:15 PM,69.1,66.2,91,30.16,10.0,NE,5.8,-,N/A,Rain,Light Rain,40,2013-08-17 23:15:00
7:35 PM,68.9,66.2,91,30.16,10.0,NE,6.9,-,N/A,,Light Drizzle,40,2013-08-17 23:35:00
7:55 PM,68.9,65.7,89,30.16,10.0,NE,6.9,-,N/A,,Overcast,40,2013-08-17 23:55:00
8:15 PM,68.5,65.1,89,30.17,10.0,NE,8.1,-,N/A,,Overcast,40,2013-08-18 00:15:00
8:35 PM,68.4,64.4,87,30.17,10.0,NNE,9.2,17.3,N/A,,Overcast,30,2013-08-18 00:35:00
8:55 PM,68.2,64.6,88,30.17,10.0,NE,9.2,-,N/A,,Overcast,50,2013-08-18 00:55:00
9:15 PM,68.0,64.6,89,30.18,10.0,ENE,12.7,18.4,N/A,,Overcast,60,2013-08-18 01:15:00
9:35 PM,67.5,64.9,92,30.18,10.0,NE,6.9,-,N/A,,Overcast,50,2013-08-18 01:35:00
9:55 PM,67.3,64.9,92,30.18,10.0,NE,6.9,-,N/A,,Overcast,40,2013-08-18 01:55:00
10:15 PM,67.3,65.3,93,30.18,10.0,NE,8.1,-,N/A,,Overcast,50,2013-08-18 02:15:00
10:35 PM,67.5,65.3,93,30.18,10.0,NE,8.1,-,N/A,,Overcast,50,2013-08-18 02:35:00
10:55 PM,67.6,65.3,92,30.18,10.0,NE,8.1,-,N/A,Rain,Light Rain,50,2013-08-18 02:55:00
11:15 PM,67.6,65.3,92,30.17,10.0,NE,6.9,-,N/A,,Overcast,50,2013-08-18 03:15:00
11:35 PM,67.6,65.5,93,30.17,7.0,NE,8.1,-,N/A,Rain,Rain,40,2013-08-18 03:35:00
11:55 PM,67.6,65.7,93,30.17,7.0,NE,4.6,-,0.01,Rain,Rain,40,2013-08-18 03:55:00